Year,Month,Day,Hour,Minute,Value (Times are PST for windspeed in km/hr)
2008,10,09,00,00,1.50
2008,10,09,00,01,0.00
2008,10,09,00,02,0.00
2008,10,09,00,03,0.00
2008,10,09,00,04,0.00
2008,10,09,00,05,0.00
2008,10,09,00,06,0.00
2008,10,09,00,07,0.00
2008,10,09,00,08,0.00
2008,10,09,00,09,0.00
2008,10,09,00,10,0.00
2008,10,09,00,11,1.30
2008,10,09,00,12,0.60
2008,10,09,00,13,1.50
2008,10,09,01,02,0.00
2008,10,09,01,03,0.00
2008,10,09,01,04,0.00
2008,10,09,01,05,0.00
2008,10,09,01,06,0.90
2008,10,09,01,07,1.20
2008,10,09,01,08,0.00
2008,10,09,01,09,0.00
2008,10,09,01,10,0.00
2008,10,09,01,11,0.00
2008,10,09,01,12,0.00
2008,10,09,01,13,0.00
2008,10,09,01,14,0.00
2008,10,09,01,15,0.00
2008,10,09,01,16,0.00
2008,10,09,01,17,0.00
2008,10,09,01,18,0.00
2008,10,09,01,19,0.00
2008,10,09,01,20,0.00
2008,10,09,01,21,0.00
2008,10,09,01,22,0.90
2008,10,09,01,23,0.10
2008,10,09,01,24,1.60
2008,10,09,01,25,0.60
2008,10,09,01,26,0.00
2008,10,09,01,27,0.00
2008,10,09,01,28,0.00
2008,10,09,01,29,0.10
2008,10,09,01,30,0.50
2008,10,09,01,31,0.00
2008,10,09,01,32,0.00
2008,10,09,01,33,0.00
2008,10,09,01,34,0.00
2008,10,09,01,35,0.00
2008,10,09,01,36,0.00
2008,10,09,01,37,0.00
2008,10,09,01,38,0.00
2008,10,09,01,39,0.00
2008,10,09,01,40,0.60
2008,10,09,01,41,0.50
2008,10,09,01,42,2.00
2008,10,09,01,43,1.20
2008,10,09,01,44,1.10
2008,10,09,01,45,1.10
2008,10,09,01,46,0.60
2008,10,09,01,47,1.50
2008,10,09,01,48,1.30
2008,10,09,01,49,0.20
2008,10,09,01,50,1.20
2008,10,09,01,51,0.00
2008,10,09,01,52,0.60
2008,10,09,01,53,0.10
2008,10,09,01,54,1.30
2008,10,09,01,55,2.00
2008,10,09,01,56,1.00
2008,10,09,01,57,0.20
2008,10,09,01,58,1.80
2008,10,09,01,59,2.20
2008,10,09,02,00,1.80
2008,10,09,02,01,2.40
2008,10,09,02,02,1.40
2008,10,09,02,03,1.20
2008,10,09,02,04,1.10
2008,10,09,02,05,0.00
2008,10,09,02,06,0.10
2008,10,09,02,07,0.00
2008,10,09,02,08,0.00
2008,10,09,02,09,1.80
2008,10,09,02,10,1.90
2008,10,09,02,11,2.20
2008,10,09,02,12,1.60
2008,10,09,02,13,1.60
2008,10,09,02,14,0.50
2008,10,09,02,15,0.00
2008,10,09,02,16,0.00
2008,10,09,02,17,0.00
2008,10,09,02,18,0.00
2008,10,09,02,19,0.00
2008,10,09,02,20,0.00
2008,10,09,02,21,0.00
2008,10,09,02,22,0.00
2008,10,09,02,23,0.00
2008,10,09,02,24,0.00
2008,10,09,02,25,0.00
2008,10,09,02,26,0.00
2008,10,09,02,27,0.00
2008,10,09,02,28,0.00
2008,10,09,02,29,0.80
2008,10,09,02,30,2.00
2008,10,09,02,31,0.50
2008,10,09,02,32,0.00
2008,10,09,02,33,0.00
2008,10,09,02,34,0.00
2008,10,09,02,35,0.00
2008,10,09,02,36,0.00
2008,10,09,02,37,0.00
2008,10,09,02,38,0.10
2008,10,09,02,39,0.00
2008,10,09,02,40,1.40
2008,10,09,02,41,0.80
2008,10,09,02,42,1.10
2008,10,09,02,43,3.00
2008,10,09,02,44,3.20
2008,10,09,02,45,2.80
2008,10,09,02,46,2.80
2008,10,09,02,47,3.40
2008,10,09,02,48,3.90
2008,10,09,02,49,3.30
2008,10,09,02,50,4.00
2008,10,09,02,51,3.30
2008,10,09,02,52,2.60
2008,10,09,02,53,3.10
2008,10,09,02,54,3.10
2008,10,09,02,55,2.60
2008,10,09,02,56,0.70
2008,10,09,02,57,0.00
2008,10,09,02,58,0.00
2008,10,09,02,59,0.00
2008,10,09,03,00,0.00
2008,10,09,03,01,0.00
2008,10,09,03,02,0.00
2008,10,09,03,03,0.30
2008,10,09,03,04,0.80
2008,10,09,03,05,0.00
2008,10,09,03,06,0.00
2008,10,09,03,07,0.00
2008,10,09,03,08,0.00
2008,10,09,03,09,0.00
2008,10,09,03,10,0.00
2008,10,09,03,11,0.00
2008,10,09,03,12,0.00
2008,10,09,03,13,0.00
2008,10,09,03,14,0.00
2008,10,09,03,15,0.00
2008,10,09,03,16,0.00
2008,10,09,03,17,0.00
2008,10,09,03,18,0.00
2008,10,09,03,19,0.00
2008,10,09,03,20,0.00
2008,10,09,03,21,0.00
2008,10,09,03,22,0.00
2008,10,09,03,23,1.00
2008,10,09,03,24,2.30
2008,10,09,03,25,2.30
2008,10,09,03,26,2.10
2008,10,09,03,27,2.00
2008,10,09,03,28,2.30
2008,10,09,03,29,1.70
2008,10,09,03,30,1.40
2008,10,09,03,31,0.20
2008,10,09,03,32,0.00
2008,10,09,03,33,0.00
2008,10,09,03,34,0.00
2008,10,09,03,35,1.00
2008,10,09,03,36,1.60
2008,10,09,03,37,0.10
2008,10,09,03,38,0.00
2008,10,09,03,39,0.00
2008,10,09,03,40,1.90
2008,10,09,03,41,2.20
2008,10,09,03,42,0.20
2008,10,09,03,43,0.10
2008,10,09,03,44,1.80
2008,10,09,03,45,1.40
2008,10,09,03,46,1.70
2008,10,09,03,47,1.90
2008,10,09,03,48,1.30
2008,10,09,03,49,0.00
2008,10,09,03,50,0.00
2008,10,09,03,51,0.00
2008,10,09,03,52,0.00
2008,10,09,03,53,0.00
2008,10,09,03,54,0.00
2008,10,09,03,55,0.00
2008,10,09,03,56,0.00
2008,10,09,03,57,0.00
2008,10,09,03,58,0.00
2008,10,09,03,59,0.00
2008,10,09,04,00,0.00
2008,10,09,04,01,0.00
2008,10,09,04,02,0.40
2008,10,09,04,03,0.00
2008,10,09,04,04,1.30
2008,10,09,04,05,1.50
2008,10,09,04,06,0.10
2008,10,09,04,07,0.00
2008,10,09,04,08,0.00
2008,10,09,04,09,0.00
2008,10,09,04,10,0.00
2008,10,09,04,11,0.00
2008,10,09,04,12,0.00
2008,10,09,04,13,0.00
2008,10,09,04,14,0.00
2008,10,09,04,15,0.00
2008,10,09,04,16,0.00
2008,10,09,04,17,1.10
2008,10,09,04,18,2.30
2008,10,09,04,19,1.80
2008,10,09,04,20,0.10
2008,10,09,04,21,0.00
2008,10,09,04,22,0.10
2008,10,09,04,23,0.00
2008,10,09,04,24,0.00
2008,10,09,04,25,0.00
2008,10,09,04,26,0.00
2008,10,09,04,27,0.00
2008,10,09,04,28,0.00
2008,10,09,04,29,0.00
2008,10,09,04,30,0.00
2008,10,09,04,31,0.00
2008,10,09,04,32,0.00
2008,10,09,04,33,0.00
2008,10,09,04,34,0.00
2008,10,09,04,35,0.00
2008,10,09,04,36,0.00
2008,10,09,04,37,0.00
2008,10,09,04,38,0.00
2008,10,09,04,39,0.00
2008,10,09,04,40,0.00
2008,10,09,04,41,0.00
2008,10,09,04,42,0.00
2008,10,09,04,43,0.00
2008,10,09,04,44,0.00
2008,10,09,04,45,0.00
2008,10,09,04,46,0.00
2008,10,09,04,47,0.00
2008,10,09,04,48,0.00
2008,10,09,04,49,0.00
2008,10,09,04,50,0.00
2008,10,09,04,51,0.00
2008,10,09,04,52,0.00
2008,10,09,04,53,0.00
2008,10,09,04,54,0.00
2008,10,09,04,55,0.00
2008,10,09,04,56,0.00
2008,10,09,04,57,0.00
2008,10,09,04,58,0.00
2008,10,09,04,59,0.00
2008,10,09,05,00,0.00
2008,10,09,05,01,0.00
2008,10,09,05,02,0.00
2008,10,09,05,03,0.00
2008,10,09,05,04,0.00
2008,10,09,05,05,0.00
2008,10,09,05,06,0.00
2008,10,09,05,07,0.00
2008,10,09,05,08,0.00
2008,10,09,05,09,0.00
2008,10,09,05,10,0.00
2008,10,09,05,11,0.00
2008,10,09,05,12,0.00
2008,10,09,05,13,0.00
2008,10,09,05,14,1.30
2008,10,09,05,15,1.00
2008,10,09,05,16,1.40
2008,10,09,05,17,0.40
2008,10,09,05,18,1.90
2008,10,09,05,19,3.00
2008,10,09,05,20,3.10
2008,10,09,05,21,3.00
2008,10,09,05,22,2.90
2008,10,09,05,23,2.90
2008,10,09,05,24,3.40
2008,10,09,05,25,1.90
2008,10,09,05,26,2.60
2008,10,09,05,27,2.00
2008,10,09,05,28,2.60
2008,10,09,05,29,2.50
2008,10,09,05,30,1.90
2008,10,09,05,31,2.00
2008,10,09,05,32,2.30
2008,10,09,05,33,2.10
2008,10,09,05,34,2.30
2008,10,09,05,35,1.70
2008,10,09,05,36,0.90
2008,10,09,05,37,2.10
2008,10,09,05,38,2.40
2008,10,09,05,39,2.50
2008,10,09,05,40,2.90
2008,10,09,05,41,2.70
2008,10,09,05,42,2.90
2008,10,09,05,43,2.40
2008,10,09,05,44,2.70
2008,10,09,05,45,2.00
2008,10,09,05,46,2.50
2008,10,09,05,47,4.00
2008,10,09,05,48,2.30
2008,10,09,05,49,2.90
2008,10,09,05,50,2.40
2008,10,09,05,51,1.70
2008,10,09,05,52,0.60
2008,10,09,05,53,1.60
2008,10,09,05,54,3.10
2008,10,09,05,55,2.60
2008,10,09,05,56,1.90
2008,10,09,05,57,2.50
2008,10,09,05,58,2.40
2008,10,09,05,59,1.30
2008,10,09,06,00,0.00
2008,10,09,06,01,0.00
2008,10,09,06,02,0.70
2008,10,09,06,03,0.70
2008,10,09,06,04,0.00
2008,10,09,06,05,0.00
2008,10,09,06,06,1.10
2008,10,09,06,07,2.00
2008,10,09,06,08,2.30
2008,10,09,06,09,2.50
2008,10,09,06,10,3.30
2008,10,09,06,11,2.10
2008,10,09,06,12,2.60
2008,10,09,06,13,2.20
2008,10,09,06,14,0.10
2008,10,09,06,15,1.40
2008,10,09,06,16,1.70
2008,10,09,06,17,1.20
2008,10,09,06,18,2.30
2008,10,09,06,19,2.50
2008,10,09,06,20,2.60
2008,10,09,06,21,1.80
2008,10,09,06,22,2.20
2008,10,09,06,23,2.70
2008,10,09,06,24,2.30
2008,10,09,06,25,1.20
2008,10,09,06,26,0.60
2008,10,09,06,27,1.30
2008,10,09,06,28,1.70
2008,10,09,06,29,2.50
2008,10,09,06,30,2.30
2008,10,09,06,31,2.90
2008,10,09,06,32,1.50
2008,10,09,06,33,2.20
2008,10,09,06,34,3.40
2008,10,09,06,35,4.40
2008,10,09,06,36,2.70
2008,10,09,06,37,4.70
2008,10,09,06,38,5.80
2008,10,09,06,39,1.40
2008,10,09,06,40,0.60
2008,10,09,06,41,1.30
2008,10,09,06,42,9.70
2008,10,09,06,43,3.60
2008,10,09,06,44,2.60
2008,10,09,06,45,3.70
2008,10,09,06,46,2.00
2008,10,09,06,47,6.10
2008,10,09,06,48,1.60
2008,10,09,06,49,5.70
2008,10,09,06,50,4.60
2008,10,09,06,51,6.10
2008,10,09,06,52,4.10
2008,10,09,06,53,5.10
2008,10,09,06,54,8.60
2008,10,09,06,55,4.60
2008,10,09,06,56,3.70
2008,10,09,06,57,5.00
2008,10,09,06,58,6.20
2008,10,09,06,59,4.50
2008,10,09,07,00,3.80
2008,10,09,07,01,7.80
2008,10,09,07,02,2.60
2008,10,09,07,03,8.10
2008,10,09,07,04,6.80
2008,10,09,07,05,7.20
2008,10,09,07,06,3.70
2008,10,09,07,07,7.40
2008,10,09,07,08,7.10
2008,10,09,07,09,6.30
2008,10,09,07,10,2.80
2008,10,09,07,11,2.20
2008,10,09,07,12,6.10
2008,10,09,07,13,5.00
2008,10,09,07,14,4.90
2008,10,09,07,15,2.50
2008,10,09,07,16,6.20
2008,10,09,07,17,6.20
2008,10,09,07,18,6.60
2008,10,09,07,19,6.70
2008,10,09,07,20,6.50
2008,10,09,07,21,4.80
2008,10,09,07,22,0.50
2008,10,09,07,23,6.20
2008,10,09,07,24,5.70
2008,10,09,07,25,10.40
2008,10,09,07,26,3.20
2008,10,09,07,27,3.10
2008,10,09,07,28,6.00
2008,10,09,07,29,6.80
2008,10,09,07,30,2.40
2008,10,09,07,31,3.30
2008,10,09,07,32,7.00
2008,10,09,07,33,5.90
2008,10,09,07,34,5.10
2008,10,09,07,35,7.10
2008,10,09,07,36,3.00
2008,10,09,07,37,3.10
2008,10,09,07,38,2.00
2008,10,09,07,39,5.20
2008,10,09,07,40,4.50
2008,10,09,07,41,7.80
2008,10,09,07,42,5.30
2008,10,09,07,43,2.20
2008,10,09,07,44,3.00
2008,10,09,07,45,3.50
2008,10,09,07,46,1.70
2008,10,09,07,47,1.90
2008,10,09,07,48,6.70
2008,10,09,07,49,5.40
2008,10,09,07,50,3.80
2008,10,09,07,51,1.50
2008,10,09,07,52,0.30
2008,10,09,07,53,0.40
2008,10,09,07,54,4.20
2008,10,09,07,55,5.50
2008,10,09,07,56,5.90
2008,10,09,07,57,4.90
2008,10,09,07,58,4.50
2008,10,09,07,59,1.10
2008,10,09,08,00,3.10
2008,10,09,08,01,4.10
2008,10,09,08,02,2.60
2008,10,09,08,03,1.80
2008,10,09,08,04,1.40
2008,10,09,08,05,1.30
2008,10,09,08,06,1.40
2008,10,09,08,07,2.30
2008,10,09,08,08,1.10
2008,10,09,08,09,2.60
2008,10,09,08,10,1.20
2008,10,09,08,11,3.60
2008,10,09,08,12,2.60
2008,10,09,08,13,3.70
2008,10,09,08,14,3.80
2008,10,09,08,15,1.40
2008,10,09,08,16,4.40
2008,10,09,08,17,2.20
2008,10,09,08,18,5.20
2008,10,09,08,19,5.60
2008,10,09,08,20,5.10
2008,10,09,08,21,1.50
2008,10,09,08,22,3.70
2008,10,09,08,23,4.10
2008,10,09,08,24,1.60
2008,10,09,08,25,1.60
2008,10,09,08,26,4.90
2008,10,09,08,27,3.20
2008,10,09,08,28,4.50
2008,10,09,08,29,4.00
2008,10,09,08,30,0.30
2008,10,09,08,31,1.40
2008,10,09,08,32,3.20
2008,10,09,08,33,2.00
2008,10,09,08,34,3.60
2008,10,09,08,35,5.20
2008,10,09,08,36,4.60
2008,10,09,08,37,2.30
2008,10,09,08,38,1.30
2008,10,09,08,39,9.10
2008,10,09,08,40,3.60
2008,10,09,08,41,3.90
2008,10,09,08,42,6.40
2008,10,09,08,43,6.00
2008,10,09,08,44,4.70
2008,10,09,08,45,4.60
2008,10,09,08,46,5.70
2008,10,09,08,47,4.60
2008,10,09,08,48,2.70
2008,10,09,08,49,4.50
2008,10,09,08,50,7.00
2008,10,09,08,51,7.40
2008,10,09,08,52,3.40
2008,10,09,08,53,8.00
2008,10,09,08,54,8.00
2008,10,09,08,55,4.10
2008,10,09,08,56,2.60
2008,10,09,08,57,1.60
2008,10,09,08,58,5.50
2008,10,09,08,59,4.70
2008,10,09,09,00,3.60
2008,10,09,09,01,2.20
2008,10,09,09,02,2.20
2008,10,09,09,03,1.50
2008,10,09,09,04,2.00
2008,10,09,09,05,7.10
2008,10,09,09,06,0.90
2008,10,09,09,07,3.30
2008,10,09,09,08,0.30
2008,10,09,09,09,0.40
2008,10,09,09,10,0.40
2008,10,09,09,11,1.20
2008,10,09,09,12,1.20
2008,10,09,09,13,0.90
2008,10,09,09,14,1.20
2008,10,09,09,15,2.50
2008,10,09,09,16,0.70
2008,10,09,09,17,0.20
2008,10,09,09,18,0.60
2008,10,09,09,19,1.00
2008,10,09,09,20,3.70
2008,10,09,09,21,0.30
2008,10,09,09,22,0.80
2008,10,09,09,23,1.20
2008,10,09,09,24,1.20
2008,10,09,09,25,0.90
2008,10,09,09,26,0.30
2008,10,09,09,27,0.40
2008,10,09,09,28,2.00
2008,10,09,09,29,0.20
2008,10,09,09,30,1.20
2008,10,09,09,31,3.40
2008,10,09,09,32,2.90
2008,10,09,09,33,2.20
2008,10,09,09,34,7.10
2008,10,09,09,35,4.10
2008,10,09,09,36,3.50
2008,10,09,09,37,1.90
2008,10,09,09,38,3.00
2008,10,09,09,39,2.30
2008,10,09,09,40,1.90
2008,10,09,09,41,0.90
2008,10,09,09,42,1.00
2008,10,09,09,43,3.40
2008,10,09,09,44,3.20
2008,10,09,09,45,4.70
2008,10,09,09,46,4.00
2008,10,09,09,47,1.90
2008,10,09,09,48,1.20
2008,10,09,09,49,1.40
2008,10,09,09,50,1.50
2008,10,09,09,51,1.70
2008,10,09,09,52,2.30
2008,10,09,09,53,1.80
2008,10,09,09,54,0.50
2008,10,09,09,55,1.30
2008,10,09,09,56,1.00
2008,10,09,09,57,1.10
2008,10,09,09,58,0.70
2008,10,09,09,59,0.60
2008,10,09,10,00,1.00
2008,10,09,10,01,2.40
2008,10,09,10,02,1.80
2008,10,09,10,03,2.30
2008,10,09,10,04,2.00
2008,10,09,10,05,3.40
2008,10,09,10,06,4.70
2008,10,09,10,07,4.90
2008,10,09,10,08,2.60
2008,10,09,10,09,4.60
2008,10,09,10,10,3.10
2008,10,09,10,11,3.30
2008,10,09,10,12,1.00
2008,10,09,10,13,2.10
2008,10,09,10,14,3.60
2008,10,09,10,15,4.10
2008,10,09,10,16,0.90
2008,10,09,10,17,5.60
2008,10,09,10,18,3.90
2008,10,09,10,19,4.30
2008,10,09,10,20,2.10
2008,10,09,10,21,1.50
2008,10,09,10,22,7.50
2008,10,09,10,23,6.50
2008,10,09,10,24,2.30
2008,10,09,10,25,6.80
2008,10,09,10,26,1.30
2008,10,09,10,27,3.70
2008,10,09,10,28,3.20
2008,10,09,10,29,2.10
2008,10,09,10,30,2.70
2008,10,09,10,31,1.50
2008,10,09,10,32,0.40
2008,10,09,10,33,1.00
2008,10,09,10,34,1.60
2008,10,09,10,35,1.30
2008,10,09,10,36,0.50
2008,10,09,10,37,0.90
2008,10,09,10,38,2.40
2008,10,09,10,39,2.70
2008,10,09,10,40,2.70
2008,10,09,10,41,0.70
2008,10,09,10,42,1.50
2008,10,09,10,43,1.40
2008,10,09,10,44,0.30
2008,10,09,10,45,0.60
2008,10,09,10,46,0.50
2008,10,09,10,47,1.10
2008,10,09,10,48,1.20
2008,10,09,10,49,1.70
2008,10,09,10,50,1.10
2008,10,09,10,51,0.90
2008,10,09,10,52,2.60
2008,10,09,10,53,0.70
2008,10,09,10,54,0.40
2008,10,09,10,55,1.10
2008,10,09,10,56,0.80
2008,10,09,10,57,1.00
2008,10,09,10,58,3.20
2008,10,09,10,59,2.70
2008,10,09,11,00,3.00
2008,10,09,11,01,1.00
2008,10,09,11,02,4.40
2008,10,09,11,03,3.10
2008,10,09,11,04,3.10
2008,10,09,11,05,0.90
2008,10,09,11,06,2.80
2008,10,09,11,07,1.90
2008,10,09,11,08,2.80
2008,10,09,11,09,0.90
2008,10,09,11,10,1.00
2008,10,09,11,11,3.90
2008,10,09,11,12,4.30
2008,10,09,11,13,2.70
2008,10,09,11,14,4.40
2008,10,09,11,15,10.50
2008,10,09,11,16,5.30
2008,10,09,11,17,0.40
2008,10,09,11,18,0.80
2008,10,09,11,19,3.90
2008,10,09,11,20,5.00
2008,10,09,11,21,4.70
2008,10,09,11,22,2.80
2008,10,09,11,23,0.10
2008,10,09,11,24,2.80
2008,10,09,11,25,4.20
2008,10,09,11,26,0.80
2008,10,09,11,27,3.20
2008,10,09,11,28,3.50
2008,10,09,11,29,0.90
2008,10,09,11,30,2.20
2008,10,09,11,31,0.60
2008,10,09,11,32,1.30
2008,10,09,11,33,1.30
2008,10,09,11,34,1.30
2008,10,09,11,35,1.00
2008,10,09,11,36,0.80
2008,10,09,11,37,1.10
2008,10,09,11,38,0.10
2008,10,09,11,39,1.80
2008,10,09,11,40,0.40
2008,10,09,11,41,1.00
2008,10,09,11,42,0.00
2008,10,09,11,43,0.20
2008,10,09,11,44,1.50
2008,10,09,11,45,1.10
2008,10,09,11,46,0.60
2008,10,09,11,47,0.00
2008,10,09,11,48,0.80
2008,10,09,11,49,3.50
2008,10,09,11,50,2.30
2008,10,09,11,51,0.90
2008,10,09,11,52,0.70
2008,10,09,11,53,2.70
2008,10,09,11,54,7.90
2008,10,09,11,55,7.90
2008,10,09,11,56,1.90
2008,10,09,11,57,5.00
2008,10,09,11,58,6.00
2008,10,09,11,59,5.70
2008,10,09,12,00,1.90
2008,10,09,12,01,0.50
2008,10,09,12,02,3.40
2008,10,09,12,03,8.80
2008,10,09,12,04,9.00
2008,10,09,12,05,8.70
2008,10,09,12,06,7.30
2008,10,09,12,07,6.60
2008,10,09,12,08,3.60
2008,10,09,12,09,5.00
2008,10,09,12,10,1.60
2008,10,09,12,11,7.30
2008,10,09,12,12,9.10
2008,10,09,12,13,11.20
2008,10,09,12,14,12.80
2008,10,09,12,15,7.10
2008,10,09,12,16,9.20
2008,10,09,12,17,8.10
2008,10,09,12,18,9.90
2008,10,09,12,19,9.30
2008,10,09,12,20,4.90
2008,10,09,12,21,3.90
2008,10,09,12,22,6.40
2008,10,09,12,23,13.80
2008,10,09,12,24,8.10
2008,10,09,12,25,6.70
2008,10,09,12,26,6.80
2008,10,09,12,27,6.70
2008,10,09,12,28,7.40
2008,10,09,12,29,5.90
2008,10,09,12,30,7.30
2008,10,09,12,31,3.30
2008,10,09,12,32,6.70
2008,10,09,12,33,10.70
2008,10,09,12,34,6.40
2008,10,09,12,35,7.40
2008,10,09,12,36,9.30
2008,10,09,12,37,11.70
2008,10,09,12,38,9.20
2008,10,09,12,39,10.40
2008,10,09,12,40,12.00
2008,10,09,12,41,9.80
2008,10,09,12,42,13.10
2008,10,09,12,43,12.40
2008,10,09,12,44,11.80
2008,10,09,12,45,18.30
2008,10,09,12,46,11.50
2008,10,09,12,47,10.00
2008,10,09,12,48,10.30
2008,10,09,12,49,11.60
2008,10,09,12,50,12.00
2008,10,09,12,51,13.60
2008,10,09,12,52,9.70
2008,10,09,12,53,10.00
2008,10,09,12,54,9.70
2008,10,09,12,55,3.10
2008,10,09,12,56,9.00
2008,10,09,12,57,12.50
2008,10,09,12,58,9.00
2008,10,09,12,59,12.20
2008,10,09,13,00,6.40
2008,10,09,13,01,9.10
2008,10,09,13,02,8.70
2008,10,09,13,03,5.10
2008,10,09,13,04,3.60
2008,10,09,13,05,8.00
2008,10,09,13,06,8.60
2008,10,09,13,07,7.80
2008,10,09,13,08,15.70
2008,10,09,13,09,10.90
2008,10,09,13,10,10.60
2008,10,09,13,11,13.90
2008,10,09,13,12,16.90
2008,10,09,13,13,13.60
2008,10,09,13,14,13.00
2008,10,09,13,15,4.50
2008,10,09,13,16,9.60
2008,10,09,13,17,11.30
2008,10,09,13,18,14.10
2008,10,09,13,19,6.90
2008,10,09,13,20,7.50
2008,10,09,13,21,14.30
2008,10,09,13,22,15.30
2008,10,09,13,23,15.80
2008,10,09,13,24,16.70
2008,10,09,13,25,14.60
2008,10,09,13,26,13.70
2008,10,09,13,27,10.00
2008,10,09,13,28,12.60
2008,10,09,13,29,15.00
2008,10,09,13,30,13.00
2008,10,09,13,31,11.30
2008,10,09,13,32,15.90
2008,10,09,13,33,13.60
2008,10,09,13,34,16.30
2008,10,09,13,35,11.50
2008,10,09,13,36,16.20
2008,10,09,13,37,10.80
2008,10,09,13,38,7.70
2008,10,09,13,39,4.50
2008,10,09,13,40,11.80
2008,10,09,13,41,6.80
2008,10,09,13,42,9.80
2008,10,09,13,43,8.30
2008,10,09,13,44,9.10
2008,10,09,13,45,15.60
2008,10,09,13,46,6.50
2008,10,09,13,47,11.40
2008,10,09,13,48,11.30
2008,10,09,13,49,10.80
2008,10,09,13,50,4.30
2008,10,09,13,51,10.50
2008,10,09,13,52,10.60
2008,10,09,13,53,13.00
2008,10,09,13,54,9.60
2008,10,09,13,55,7.60
2008,10,09,13,56,9.80
2008,10,09,13,57,9.00
2008,10,09,13,58,14.30
2008,10,09,13,59,9.30
2008,10,09,14,00,4.40
2008,10,09,14,01,8.70
2008,10,09,14,02,13.20
2008,10,09,14,03,15.80
2008,10,09,14,04,14.10
2008,10,09,14,05,12.80
2008,10,09,14,06,10.30
2008,10,09,14,07,4.80
2008,10,09,14,08,8.60
2008,10,09,14,09,8.40
2008,10,09,14,10,8.20
2008,10,09,14,11,8.80
2008,10,09,14,12,10.70
2008,10,09,14,13,12.50
2008,10,09,14,14,17.50
2008,10,09,14,15,7.30
2008,10,09,14,16,10.80
2008,10,09,14,17,7.50
2008,10,09,14,18,10.00
2008,10,09,14,19,12.70
2008,10,09,14,20,12.50
2008,10,09,14,21,11.70
2008,10,09,14,22,8.30
2008,10,09,14,23,4.60
2008,10,09,14,24,6.90
2008,10,09,14,25,6.20
2008,10,09,14,26,11.00
2008,10,09,14,27,11.00
2008,10,09,14,28,11.50
2008,10,09,14,29,7.90
2008,10,09,14,30,10.00
2008,10,09,14,31,8.90
2008,10,09,14,32,10.30
2008,10,09,14,33,11.40
2008,10,09,14,34,9.30
2008,10,09,14,35,12.50
2008,10,09,14,36,7.60
2008,10,09,14,37,11.90
2008,10,09,14,38,9.60
2008,10,09,14,39,6.70
2008,10,09,14,40,7.70
2008,10,09,14,41,8.70
2008,10,09,14,42,9.60
2008,10,09,14,43,5.90
2008,10,09,14,44,10.60
2008,10,09,14,45,17.20
2008,10,09,14,46,8.70
2008,10,09,14,47,7.50
2008,10,09,14,48,6.80
2008,10,09,14,49,6.70
2008,10,09,14,50,7.10
2008,10,09,14,51,5.80
2008,10,09,14,52,5.20
2008,10,09,14,53,10.50
2008,10,09,14,54,7.40
2008,10,09,14,55,5.30
2008,10,09,14,56,9.00
2008,10,09,14,57,9.80
2008,10,09,14,58,9.40
2008,10,09,14,59,7.10
2008,10,09,15,00,12.60
2008,10,09,15,01,8.50
2008,10,09,15,02,5.80
2008,10,09,15,03,8.10
2008,10,09,15,04,11.20
2008,10,09,15,05,8.70
2008,10,09,15,06,10.50
2008,10,09,15,07,7.50
2008,10,09,15,08,3.50
2008,10,09,15,09,4.30
2008,10,09,15,10,2.90
2008,10,09,15,11,8.00
2008,10,09,15,12,9.70
2008,10,09,15,13,5.10
2008,10,09,15,14,7.60
2008,10,09,15,15,4.40
2008,10,09,15,16,8.00
2008,10,09,15,17,2.40
2008,10,09,15,18,5.60
2008,10,09,15,19,3.40
2008,10,09,15,20,4.20
2008,10,09,15,21,6.10
2008,10,09,15,22,6.60
2008,10,09,15,23,8.90
2008,10,09,15,24,4.30
2008,10,09,15,25,6.30
2008,10,09,15,26,7.20
2008,10,09,15,27,3.50
2008,10,09,15,28,7.50
2008,10,09,15,29,8.30
2008,10,09,15,30,5.80
2008,10,09,15,31,5.20
2008,10,09,15,32,8.10
2008,10,09,15,33,6.90
2008,10,09,15,34,2.10
2008,10,09,15,35,5.60
2008,10,09,15,36,4.40
2008,10,09,15,37,7.50
2008,10,09,15,38,7.10
2008,10,09,15,39,6.10
2008,10,09,15,40,8.30
2008,10,09,15,41,4.60
2008,10,09,15,42,3.20
2008,10,09,15,43,3.70
2008,10,09,15,44,9.60
2008,10,09,15,45,10.00
2008,10,09,15,46,11.20
2008,10,09,15,47,7.80
2008,10,09,15,48,5.70
2008,10,09,15,49,7.00
2008,10,09,15,50,8.60
2008,10,09,15,51,5.40
2008,10,09,15,52,6.70
2008,10,09,15,53,12.30
2008,10,09,15,54,9.70
2008,10,09,15,55,5.30
2008,10,09,15,56,9.00
2008,10,09,15,57,9.50
2008,10,09,15,58,10.50
2008,10,09,15,59,6.30
2008,10,09,16,00,7.70
2008,10,09,16,01,8.80
2008,10,09,16,02,12.50
2008,10,09,16,03,10.70
2008,10,09,16,04,8.70
2008,10,09,16,05,9.70
2008,10,09,16,06,13.80
2008,10,09,16,07,10.40
2008,10,09,16,08,8.60
2008,10,09,16,09,3.60
2008,10,09,16,10,5.60
2008,10,09,16,11,12.00
2008,10,09,16,12,6.70
2008,10,09,16,13,11.90
2008,10,09,16,14,7.10
2008,10,09,16,15,4.10
2008,10,09,16,16,7.80
2008,10,09,16,17,5.10
2008,10,09,16,18,3.70
2008,10,09,16,19,8.30
2008,10,09,16,20,9.50
2008,10,09,16,21,6.30
2008,10,09,16,22,8.00
2008,10,09,16,23,8.30
2008,10,09,16,24,5.30
2008,10,09,16,25,8.20
2008,10,09,16,26,9.20
2008,10,09,16,27,6.30
2008,10,09,16,28,8.70
2008,10,09,16,29,9.10
2008,10,09,16,30,4.60
2008,10,09,16,31,6.00
2008,10,09,16,32,7.00
2008,10,09,16,33,2.70
2008,10,09,16,34,0.80
2008,10,09,16,35,0.20
2008,10,09,16,36,0.20
2008,10,09,16,37,4.20
2008,10,09,16,38,2.40
2008,10,09,16,39,1.70
2008,10,09,16,40,7.60
2008,10,09,16,41,7.10
2008,10,09,16,42,2.60
2008,10,09,16,43,5.70
2008,10,09,16,44,7.90
2008,10,09,16,45,9.10
2008,10,09,16,46,4.70
2008,10,09,16,47,2.40
2008,10,09,16,48,5.60
2008,10,09,16,49,1.80
2008,10,09,16,50,2.40
2008,10,09,16,51,4.10
2008,10,09,16,52,3.00
2008,10,09,16,53,5.10
2008,10,09,16,54,1.60
2008,10,09,16,55,1.30
2008,10,09,16,56,1.00
2008,10,09,16,57,4.00
2008,10,09,16,58,4.90
2008,10,09,16,59,3.50
2008,10,09,17,00,3.80
2008,10,09,17,01,3.20
2008,10,09,17,02,5.30
2008,10,09,17,03,2.70
2008,10,09,17,04,4.20
2008,10,09,17,05,3.60
2008,10,09,17,06,4.70
2008,10,09,17,07,9.40
2008,10,09,17,08,11.10
2008,10,09,17,09,8.30
2008,10,09,17,10,8.70
2008,10,09,17,11,10.00
2008,10,09,17,12,4.80
2008,10,09,17,13,5.20
2008,10,09,17,14,12.10
2008,10,09,17,15,6.60
2008,10,09,17,16,3.40
2008,10,09,17,17,8.50
2008,10,09,17,18,11.20
2008,10,09,17,19,12.80
2008,10,09,17,20,8.20
2008,10,09,17,21,8.50
2008,10,09,17,22,5.00
2008,10,09,17,23,6.30
2008,10,09,17,24,3.40
2008,10,09,17,25,6.10
2008,10,09,17,26,10.00
2008,10,09,17,27,5.60
2008,10,09,17,28,9.60
2008,10,09,17,29,7.20
2008,10,09,17,30,5.40
2008,10,09,17,31,2.70
2008,10,09,17,32,7.90
2008,10,09,17,33,4.40
2008,10,09,17,34,2.10
2008,10,09,17,35,1.10
2008,10,09,17,36,3.90
2008,10,09,17,37,3.50
2008,10,09,17,38,8.00
2008,10,09,17,39,6.90
2008,10,09,17,40,1.10
2008,10,09,17,41,2.50
2008,10,09,17,42,5.60
2008,10,09,17,43,5.70
2008,10,09,17,44,9.90
2008,10,09,17,45,5.50
2008,10,09,17,46,6.40
2008,10,09,17,47,3.70
2008,10,09,17,48,5.70
2008,10,09,17,49,4.00
2008,10,09,17,50,2.80
2008,10,09,17,51,4.80
2008,10,09,17,52,11.40
2008,10,09,17,53,13.90
2008,10,09,17,54,5.50
2008,10,09,17,55,8.90
2008,10,09,17,56,6.10
2008,10,09,17,57,6.90
2008,10,09,17,58,9.10
2008,10,09,17,59,7.50
2008,10,09,18,00,0.90
2008,10,09,18,01,7.60
2008,10,09,18,02,3.20
2008,10,09,18,03,6.60
2008,10,09,18,04,3.80
2008,10,09,18,05,10.80
2008,10,09,18,06,3.50
2008,10,09,18,07,4.90
2008,10,09,18,08,0.90
2008,10,09,18,09,5.90
2008,10,09,18,10,6.40
2008,10,09,18,11,9.80
2008,10,09,18,12,7.10
2008,10,09,18,13,12.10
2008,10,09,18,14,7.50
2008,10,09,18,15,5.80
2008,10,09,18,16,6.20
2008,10,09,18,17,10.30
2008,10,09,18,18,9.30
2008,10,09,18,19,9.50
2008,10,09,18,20,9.90
2008,10,09,18,21,5.60
2008,10,09,18,22,1.50
2008,10,09,18,23,3.90
2008,10,09,18,24,4.80
2008,10,09,18,25,8.60
2008,10,09,18,26,5.50
2008,10,09,18,27,3.80
2008,10,09,18,28,4.60
2008,10,09,18,29,6.80
2008,10,09,18,30,3.30
2008,10,09,18,31,5.60
2008,10,09,18,32,3.60
2008,10,09,18,33,1.20
2008,10,09,18,34,0.20
2008,10,09,18,35,0.30
2008,10,09,18,36,0.10
2008,10,09,18,37,0.60
2008,10,09,18,38,4.90
2008,10,09,18,39,5.40
2008,10,09,18,40,1.80
2008,10,09,18,41,0.90
2008,10,09,18,42,1.40
2008,10,09,18,43,3.10
2008,10,09,18,44,1.00
2008,10,09,18,45,1.40
2008,10,09,18,46,0.90
2008,10,09,18,47,2.10
2008,10,09,18,48,0.80
2008,10,09,18,49,1.20